Location: Newark
(33.6333°S, 78.8500°W)
Time: 12:31:42
(UTC+00:00)

Courier 1B - Pass Details

Date: 22 September 2019
Orbit: 962 x 1209 km, 28.3° (Epoch: 19 October)

Event Time Altitude Azimuth Distance (km) Brightness Sun altitude
Rises 23:25:16 0° 285° (WNW) 4,056 12.5 -3.7°
Reaches altitude 10° 23:28:13 10° 289° (WNW) 3,067 11.5 -4.3°
Maximum altitude 23:35:36 56° 4° (N) 1,303 8.2 -5.8°
Drops below altitude 10° 23:42:32 10° 81° (E) 2,892 9.3 -7.2°
Enters shadow 23:42:57 - 81° (E) 3,027 9.4 -7.3°
Sets 23:45:14 0° 85° (E) 3,810 - -7.8°
